Regional Weather Roundup
Issued by NWS Tiyan, Guam

Home | Current Version | Previous Version | Text Only | Print | Product List | Glossary On
Versions: 1 2 3 4 5 6 7 8 9 10 11 12 13 14 15 16 17 18 19 20 21 22 23 24 25 26 27
000
ASGM40 PGUM 291012
RWRGUM
WEATHER ROUNDUP FOR THE MARIANAS
NATIONAL WEATHER SERVICE TIYAN GU
800 PM CHST THU JUN 29 2017

GUZ001>004-291100-
MARIANA ISLANDS-

CITY           SKY/WX    TMP DP  RH WIND       PRES   REMARKS
GUAM AIRPORT   MOCLDY    77  77 100 N3        29.91F FOG
ANDERSEN AFB   MOCLDY    75  75 100 CALM      29.92S
ROTA AIRPORT   CLOUDY    77  73  88 N2        29.92R
TINIAN AP      MOCLDY    77  73  88 SE5       29.90R
SAIPAN AP      PTCLDY    81  75  83 CALM      29.91R

$$





USA.gov is the U.S. government's official web portal to all federal, state and local government web resources and services.